Regional Weather Roundup
Issued by NWS

Home | Current Version | Previous Version | Graphics & Text | Print | Product List | Glossary On
Versions: 1 2 3 4 5 6 7 8 9 10 11 12 13 14 15 16 17 18 19 20 21 22 23 24 25 26 27 28 29 30 31 32 33 34 35 36 37 38 39 40 41 42 43 44 45 46 47 48 49 50
000
ASUS43 KDTX 271610
RWRMI
MICHIGAN HOURLY REGIONAL WEATHER ROUNDUP
NATIONAL WEATHER SERVICE DETROIT/PONTIAC MI
1200 PM EDT WED AUG 27 2014

NOTE: "FAIR" INDICATES FEW OR NO CLOUDS BELOW 12,000 FEET WITH NO
SIGNIFICANT WEATHER AND/OR OBSTRUCTION TO VISIBILITY.

MIZ047>049-052>055-059>063-066>070-074>076-081>083-271700-
SOUTHEAST LOWER MICHIGAN

CITY           SKY/WX    TMP DP  RH WIND       PRES   REMARKS
ADRIAN         PTSUNNY   73  65  75 VRB3      30.14S
ALMA           PTSUNNY   68  60  76 CALM      30.17R
ANN ARBOR      PTSUNNY   73  62  68 N5        30.13S
BAD AXE        PTSUNNY   67  58  74 NW8       30.15R
CARO           MOSUNNY   68  59  73 CALM      30.15R
DETROIT CITY   MOSUNNY   73  57  57 N5        30.13F
DETROIT        PTSUNNY   73  62  68 NW5       30.14R
FLINT          PTSUNNY   73  57  57 VRB5      30.15S
GROSSE ILE     MOSUNNY   73  64  73 N7        30.11F
HILLSDALE      PTSUNNY   71  65  84 CALM      30.15S
HOWELL         CLOUDY    68  61  77 N3        30.14F

CITY           SKY/WX    TMP DP  RH WIND       PRES   REMARKS
JACKSON        CLOUDY    70  63  78 N6        30.15S
LAMBERTVILLE   PTSUNNY   73  63  68 CALM      30.13S
LANSING        PTSUNNY   70  62  76 NE5       30.15F
LAPEER         FAIR      67  56  67 E3        30.14F
MASON          PTSUNNY   67  63  84 CALM      30.15S
MONROE         CLOUDY    73  64  73 N8        30.11S
MT. CLEMENS    PTSUNNY   71  57  60 N6        30.12F
PONTIAC        PTSUNNY   70  58  65 W3        30.13F
PORT HOPE        N/A     65  54  67 NW7       30.14R
PORT HURON     MOSUNNY   70  57  64 NE3       30.13F
TRI CITIES     MOSUNNY   69  58  67 NW6       30.17R
TROY           MOSUNNY   72  57  60 CALM      30.14F
SAGINAW HB     PTSUNNY   70  59  68 CALM      30.15R
$$
MIZ043>046-050>051-056>058-064>065-071>073-077>080-271700-
SOUTHWEST LOWER MICHIGAN

CITY           SKY/WX    TMP DP  RH WIND       PRES   REMARKS
BATTLE CREEK   MOSUNNY   71  61  70 VRB3      30.15F
BENTON HARBOR  SUNNY     73  60  63 CALM      30.15S
BIG RAPIDS     PTSUNNY   69  60  72 NW6       30.17F
COLDWATER      SUNNY     74  65  71 NE6       30.13F
FREMONT        FAIR      71  54  54 NW3       30.17F
HOLLAND        SUNNY     74  59  59 N6        30.16F
GRAND RAPIDS   PTSUNNY   72  62  71 VRB7      30.16F
IONIA          PTSUNNY   67  62  82 CALM      30.15S
KALAMAZOO      MOSUNNY   72  59  63 NE7       30.15S
LUDINGTON      SUNNY     69  55  59 NE5       30.18F
MARSHALL       PTSUNNY   68  62  82 CALM      30.14F
MOUNT PLEASANT SUNNY     70  54  56 CALM      30.16S
MUSKEGON       PTSUNNY   74  58  57 N6        30.16F
SOUTH HAVEN    SUNNY     73  59  61 E3        30.15S
$$
MIZ016>042-271700-
NORTHERN LOWER MICHIGAN

CITY           SKY/WX    TMP DP  RH WIND       PRES   REMARKS
ALPENA         PTSUNNY   64  51  62 NW9       30.15S
BEAVER ISLAND  CLOUDY    64  49  57 W6        30.19S
BELLAIRE       CLOUDY    65  51  60 W5        30.18S
CADILLAC       SUNNY     66  51  58 N3        30.18S
CHARLEVOIX     SUNNY     64  53  68 NW9       30.22S
FRANKFORT      PTSUNNY   69  53  58 NW6       30.19F
GAYLORD        CLOUDY    62  49  62 VRB6      30.18S
GRAYLING       MOSUNNY   67  53  60 W6        30.19S
HARBOR SPRINGS PTSUNNY   64  51  61 NW8       30.18S
HOUGHTON LAKE  MOSUNNY   67  50  54 VRB6      30.18F
MANISTEE       SUNNY     68  48  49 NW3       30.20S
OSCODA         MOSUNNY   66  50  57 N8        30.14F
PELLSTON       CLOUDY    65  48  54 NW12G23   30.18R
ROGERS CITY    MOSUNNY   66  52  59 W10G16    30.15S
TRAVERSE CITY  PTSUNNY   68  51  54 NW8       30.18R
$$
MIZ007>008-015-271700-
EASTERN UPPER MICHIGAN

CITY           SKY/WX    TMP DP  RH WIND       PRES   REMARKS
KINROSS        PTSUNNY   63  48  59 NW15G22   30.14S
MACKINAC ISLAN PTSUNNY   61  51  70 NW9       30.16R
NEWBERRY       CLOUDY    60  50  69 W15       30.16S
S. S. MARIE    PTSUNNY   61  50  67 W12       30.13S
MUNISING         N/A     64  49  57 N9        30.19R
$$
MIZ004>006-011>014-085-271700-
CENTRAL UPPER MICHIGAN

CITY           SKY/WX    TMP DP  RH WIND       PRES   REMARKS
MANISTIQUE     CLOUDY    65  51  60 NW8       30.18S
ESCANABA       MOSUNNY   63  50  63 CALM      30.20S
MENOMINEE      PTSUNNY   64  52  63 N6        30.18F
SAWYER-GWINN   CLOUDY    59  50  72 E6        30.20R
$$
MIZ001>003-009>011-084-271700-
WESTERN UPPER MICHIGAN

CITY           SKY/WX    TMP DP  RH WIND       PRES   REMARKS
IRON MOUNTAIN  CLOUDY    63  50  62 NW7       30.19S
HOUGHTON       PTSUNNY   62  44  51 VRB5      30.19R
COPPER HARBOR    N/A     58  47  66 N9        30.17S
$$

ABBREVIATIONS USED IN REMARKS
   TC - TEMPERATURE IN CELSIUS
  WCI - WIND CHILL INDEX
   HX - HEAT INDEX
  VSB - VISIBILITY




USA.gov is the U.S. government's official web portal to all federal, state and local government web resources and services.